Time,TemperatureF,DewpointF,PressureIn,WindDirection,WindDirectionDegrees,WindSpeedMPH,WindSpeedGustMPH,Humidity,HourlyPrecipIn,Conditions,Clouds,dailyrainin,SoftwareType,DateUTC
2013-11-21 00:00:00,29.4,14.4,30.59,NNE,16,2.0,20.0,53,0.00,,,0.00,Wunderground v.1.15,2013-11-21 05:00:00,
2013-11-21 00:05:00,29.7,15.1,30.59,NNE,16,1.0,20.0,54,0.00,,,0.00,Wunderground v.1.15,2013-11-21 05:05:00,
2013-11-21 00:10:00,29.8,14.7,30.59,NNE,16,1.0,20.0,53,0.00,,,0.00,Wunderground v.1.15,2013-11-21 05:10:00,
2013-11-21 00:15:00,29.9,14.8,30.59,NNE,16,1.0,20.0,53,0.00,,,0.00,Wunderground v.1.15,2013-11-21 05:15:00,
2013-11-21 00:20:00,29.9,15.3,30.59,NNE,16,1.0,20.0,54,0.00,,,0.00,Wunderground v.1.15,2013-11-21 05:20:00,
2013-11-21 00:25:00,29.9,15.3,30.59,NNE,16,1.0,20.0,54,0.00,,,0.00,Wunderground v.1.15,2013-11-21 05:25:00,
2013-11-21 00:30:00,30.1,15.4,30.59,NNE,16,1.0,20.0,54,0.00,,,0.00,Wunderground v.1.15,2013-11-21 05:30:00,
2013-11-21 00:40:00,30.0,14.9,30.59,NNE,16,1.0,20.0,53,0.00,,,0.00,Wunderground v.1.15,2013-11-21 05:40:00,
2013-11-21 00:45:00,29.9,14.4,30.59,NNE,16,1.0,20.0,52,0.00,,,0.00,Wunderground v.1.15,2013-11-21 05:45:00,
2013-11-21 00:50:00,29.7,14.2,30.59,NNE,16,1.0,20.0,52,0.00,,,0.00,Wunderground v.1.15,2013-11-21 05:50:00,
2013-11-21 00:55:00,29.7,14.2,30.59,NNE,16,2.0,20.0,52,0.00,,,0.00,Wunderground v.1.15,2013-11-21 05:55:00,
2013-11-21 01:00:00,29.6,14.1,30.59,NNE,16,2.0,2.0,52,0.00,,,0.00,Wunderground v.1.15,2013-11-21 06:00:00,
2013-11-21 01:10:00,29.4,13.9,30.59,NNE,16,2.0,2.0,52,0.00,,,0.00,Wunderground v.1.15,2013-11-21 06:10:00,
2013-11-21 01:15:00,29.5,13.6,30.59,NNE,16,2.0,20.0,51,0.00,,,0.00,Wunderground v.1.15,2013-11-21 06:15:00,
2013-11-21 01:20:00,29.4,13.9,30.60,NNE,16,1.0,20.0,52,0.00,,,0.00,Wunderground v.1.15,2013-11-21 06:20:00,
2013-11-21 01:25:00,29.2,13.7,30.60,NNE,16,2.0,20.0,52,0.00,,,0.00,Wunderground v.1.15,2013-11-21 06:25:00,
2013-11-21 01:30:00,28.9,14.3,30.60,NNE,16,2.0,20.0,54,0.00,,,0.00,Wunderground v.1.15,2013-11-21 06:30:00,
2013-11-21 01:35:00,28.8,14.2,30.60,NNE,16,2.0,20.0,54,0.00,,,0.00,Wunderground v.1.15,2013-11-21 06:35:00,
2013-11-21 01:40:00,28.9,13.9,30.60,NNE,16,1.0,20.0,53,0.00,,,0.00,Wunderground v.1.15,2013-11-21 06:40:00,
2013-11-21 01:49:00,28.8,14.2,30.60,NNE,16,2.0,20.0,54,0.00,,,0.00,Wunderground v.1.15,2013-11-21 06:49:00,
2013-11-21 01:55:00,28.5,13.9,30.60,NNE,16,2.0,20.0,54,0.00,,,0.00,Wunderground v.1.15,2013-11-21 06:55:00,
2013-11-21 02:00:00,28.7,14.1,30.60,NNE,16,2.0,2.0,54,0.00,,,0.00,Wunderground v.1.15,2013-11-21 07:00:00,
2013-11-21 02:05:00,28.9,14.7,30.60,NNE,16,1.0,20.0,55,0.00,,,0.00,Wunderground v.1.15,2013-11-21 07:05:00,
2013-11-21 02:10:00,29.0,15.2,30.60,NNE,16,1.0,20.0,56,0.00,,,0.00,Wunderground v.1.15,2013-11-21 07:10:00,
2013-11-21 02:15:00,29.2,15.8,30.60,NNE,16,2.0,20.0,57,0.00,,,0.00,Wunderground v.1.15,2013-11-21 07:15:00,
2013-11-21 02:25:00,29.3,16.3,30.60,NNE,16,1.0,20.0,58,0.00,,,0.00,Wunderground v.1.15,2013-11-21 07:25:00,
2013-11-21 02:30:00,29.3,16.3,30.60,NNE,16,1.0,1.0,58,0.00,,,0.00,Wunderground v.1.15,2013-11-21 07:30:00,
2013-11-21 02:35:00,29.3,15.9,30.59,NNE,16,1.0,20.0,57,0.00,,,0.00,Wunderground v.1.15,2013-11-21 07:35:00,
2013-11-21 02:40:00,29.4,15.6,30.59,NNE,16,0.0,20.0,56,0.00,,,0.00,Wunderground v.1.15,2013-11-21 07:40:00,
2013-11-21 02:45:00,29.3,15.5,30.59,NNE,16,1.0,20.0,56,0.00,,,0.00,Wunderground v.1.15,2013-11-21 07:45:00,
2013-11-21 02:50:00,29.0,15.2,30.59,NNE,16,1.0,1.0,56,0.00,,,0.00,Wunderground v.1.15,2013-11-21 07:50:00,
2013-11-21 03:00:00,28.6,14.9,30.59,NNE,16,1.0,20.0,56,0.00,,,0.00,Wunderground v.1.15,2013-11-21 08:00:00,
2013-11-21 03:10:00,28.5,14.4,30.58,NNE,16,1.0,20.0,55,0.00,,,0.00,Wunderground v.1.15,2013-11-21 08:10:00,
2013-11-21 03:15:00,28.5,14.4,30.59,NNE,16,1.0,20.0,55,0.00,,,0.00,Wunderground v.1.15,2013-11-21 08:15:00,
2013-11-21 03:20:00,28.6,14.5,30.59,NNE,16,1.0,20.0,55,0.00,,,0.00,Wunderground v.1.15,2013-11-21 08:20:00,
2013-11-21 03:25:00,28.5,14.4,30.59,NNE,16,1.0,20.0,55,0.00,,,0.00,Wunderground v.1.15,2013-11-21 08:25:00,
2013-11-21 03:30:00,28.5,15.2,30.59,NNE,16,0.0,20.0,57,0.00,,,0.00,Wunderground v.1.15,2013-11-21 08:30:00,
2013-11-21 03:35:00,28.4,15.5,30.59,NNE,16,1.0,20.0,58,0.00,,,0.00,Wunderground v.1.15,2013-11-21 08:35:00,
2013-11-21 03:45:00,28.5,15.6,30.59,NNE,16,2.0,20.0,58,0.00,,,0.00,Wunderground v.1.15,2013-11-21 08:45:00,
2013-11-21 03:50:00,28.8,15.9,30.59,NNE,16,2.0,2.0,58,0.00,,,0.00,Wunderground v.1.15,2013-11-21 08:50:00,
2013-11-21 03:55:00,28.9,16.4,30.59,NNE,16,1.0,20.0,59,0.00,,,0.00,Wunderground v.1.15,2013-11-21 08:55:00,
2013-11-21 04:00:00,29.0,16.4,30.59,NNE,16,1.0,20.0,59,0.00,,,0.00,Wunderground v.1.15,2013-11-21 09:00:00,
2013-11-21 04:05:00,28.9,16.4,30.59,NNE,16,1.0,20.0,59,0.00,,,0.00,Wunderground v.1.15,2013-11-21 09:05:00,
2013-11-21 04:10:00,28.7,16.2,30.59,NNE,16,1.0,20.0,59,0.00,,,0.00,Wunderground v.1.15,2013-11-21 09:10:00,
2013-11-21 04:15:00,28.3,16.6,30.59,NNE,16,1.0,20.0,61,0.00,,,0.00,Wunderground v.1.15,2013-11-21 09:15:00,
2013-11-21 04:25:00,27.8,16.1,30.59,NNE,16,1.0,20.0,61,0.00,,,0.00,Wunderground v.1.15,2013-11-21 09:25:00,
2013-11-21 04:30:00,27.7,16.4,30.59,NNE,16,1.0,20.0,62,0.00,,,0.00,Wunderground v.1.15,2013-11-21 09:30:00,
2013-11-21 04:35:00,27.5,16.9,30.58,NNE,16,1.0,20.0,64,0.00,,,0.00,Wunderground v.1.15,2013-11-21 09:35:00,
2013-11-21 04:40:00,27.4,17.2,30.58,NNE,16,1.0,1.0,65,0.00,,,0.00,Wunderground v.1.15,2013-11-21 09:40:00,
2013-11-21 04:45:00,27.4,16.8,30.59,NNE,16,1.0,20.0,64,0.00,,,0.00,Wunderground v.1.15,2013-11-21 09:45:00,
2013-11-21 04:50:00,27.3,16.4,30.59,NNE,16,1.0,20.0,63,0.00,,,0.00,Wunderground v.1.15,2013-11-21 09:50:00,
2013-11-21 04:55:00,27.2,16.3,30.59,NNE,16,1.0,20.0,63,0.00,,,0.00,Wunderground v.1.15,2013-11-21 09:55:00,
2013-11-21 05:05:00,26.9,16.7,30.59,NNE,16,1.0,1.0,65,0.00,,,0.00,Wunderground v.1.15,2013-11-21 10:05:00,
2013-11-21 05:10:00,26.9,16.7,30.58,NNE,16,1.0,20.0,65,0.00,,,0.00,Wunderground v.1.15,2013-11-21 10:10:00,
2013-11-21 05:15:00,27.0,17.1,30.58,NNE,16,1.0,20.0,66,0.00,,,0.00,Wunderground v.1.15,2013-11-21 10:15:00,
2013-11-21 05:20:00,27.0,16.8,30.58,NNE,16,1.0,20.0,65,0.00,,,0.00,Wunderground v.1.15,2013-11-21 10:20:00,
2013-11-21 05:25:00,27.0,17.5,30.59,NNE,16,1.0,1.0,67,0.00,,,0.00,Wunderground v.1.15,2013-11-21 10:25:00,
2013-11-21 05:30:00,27.0,17.1,30.59,NNE,16,1.0,20.0,66,0.00,,,0.00,Wunderground v.1.15,2013-11-21 10:30:00,
2013-11-21 05:35:00,26.9,16.7,30.59,NNE,16,1.0,20.0,65,0.00,,,0.00,Wunderground v.1.15,2013-11-21 10:35:00,
2013-11-21 05:45:00,26.9,17.0,30.59,NNE,16,2.0,20.0,66,0.00,,,0.00,Wunderground v.1.15,2013-11-21 10:45:00,
2013-11-21 05:50:00,26.9,17.7,30.59,NNE,16,2.0,20.0,68,0.00,,,0.00,Wunderground v.1.15,2013-11-21 10:50:00,
2013-11-21 05:55:00,27.1,17.2,30.59,NNE,16,2.0,2.0,66,0.00,,,0.00,Wunderground v.1.15,2013-11-21 10:55:00,
2013-11-21 06:00:00,27.4,17.2,30.60,NNE,16,2.0,2.0,65,0.00,,,0.00,Wunderground v.1.15,2013-11-21 11:00:00,
2013-11-21 06:05:00,27.6,17.0,30.60,NNE,16,1.0,20.0,64,0.00,,,0.00,Wunderground v.1.15,2013-11-21 11:05:00,
2013-11-21 06:10:00,27.6,17.0,30.60,NNE,16,1.0,20.0,64,0.00,,,0.00,Wunderground v.1.15,2013-11-21 11:10:00,
2013-11-21 06:20:00,27.4,17.9,30.59,NNE,16,1.0,20.0,67,0.00,,,0.00,Wunderground v.1.15,2013-11-21 11:20:00,
2013-11-21 06:25:00,27.3,18.1,30.60,NNE,16,2.0,20.0,68,0.00,,,0.00,Wunderground v.1.15,2013-11-21 11:25:00,
2013-11-21 06:30:00,27.2,18.0,30.60,NNE,16,2.0,2.0,68,0.00,,,0.00,Wunderground v.1.15,2013-11-21 11:30:00,
2013-11-21 06:35:00,27.1,18.3,30.60,NNE,16,1.0,20.0,69,0.00,,,0.00,Wunderground v.1.15,2013-11-21 11:35:00,
2013-11-21 06:40:00,27.0,18.5,30.60,NNE,16,1.0,1.0,70,0.00,,,0.00,Wunderground v.1.15,2013-11-21 11:40:00,
2013-11-21 06:45:00,27.0,18.8,30.60,NNE,16,0.0,2.0,71,0.00,,,0.00,Wunderground v.1.15,2013-11-21 11:45:00,
2013-11-21 06:50:00,26.9,18.7,30.59,NNE,16,1.0,20.0,71,0.00,,,0.00,Wunderground v.1.15,2013-11-21 11:50:00,
2013-11-21 07:00:00,26.8,19.3,30.59,NNE,16,1.0,1.0,73,0.00,,,0.00,Wunderground v.1.15,2013-11-21 12:00:00,
2013-11-21 07:05:00,26.8,19.6,30.59,NNE,16,1.0,20.0,74,0.00,,,0.00,Wunderground v.1.15,2013-11-21 12:05:00,
2013-11-21 07:10:00,26.8,19.9,30.59,NNE,16,1.0,1.0,75,0.00,,,0.00,Wunderground v.1.15,2013-11-21 12:10:00,
2013-11-21 07:15:00,26.9,19.7,30.59,NNE,16,0.0,20.0,74,0.00,,,0.00,Wunderground v.1.15,2013-11-21 12:15:00,
2013-11-21 07:20:00,27.0,19.8,30.59,NNE,16,0.0,20.0,74,0.00,,,0.00,Wunderground v.1.15,2013-11-21 12:20:00,
2013-11-21 07:25:00,26.9,20.0,30.59,NNE,16,0.0,20.0,75,0.00,,,0.00,Wunderground v.1.15,2013-11-21 12:25:00,
2013-11-21 07:35:00,27.0,20.1,30.59,NNE,16,1.0,20.0,75,0.00,,,0.00,Wunderground v.1.15,2013-11-21 12:35:00,
2013-11-21 07:40:00,27.0,19.8,30.59,NNE,16,1.0,20.0,74,0.00,,,0.00,Wunderground v.1.15,2013-11-21 12:40:00,
2013-11-21 07:45:00,26.9,20.3,30.59,NNE,16,1.0,20.0,76,0.00,,,0.00,Wunderground v.1.15,2013-11-21 12:45:00,
2013-11-21 07:50:00,27.1,21.2,30.59,NNE,16,1.0,20.0,78,0.00,,,0.00,Wunderground v.1.15,2013-11-21 12:50:00,
2013-11-21 07:55:00,27.4,21.4,30.59,NNE,16,1.0,20.0,78,0.00,,,0.00,Wunderground v.1.15,2013-11-21 12:55:00,
2013-11-21 08:00:00,27.7,22.0,30.58,NNE,16,0.0,20.0,79,0.00,,,0.00,Wunderground v.1.15,2013-11-21 13:00:00,
2013-11-21 08:05:00,27.9,21.9,30.58,NNE,16,0.0,20.0,78,0.00,,,0.00,Wunderground v.1.15,2013-11-21 13:05:00,
2013-11-21 08:15:00,28.4,22.1,30.58,NNE,16,0.0,20.0,77,0.00,,,0.00,Wunderground v.1.15,2013-11-21 13:15:00,
2013-11-21 08:25:00,28.7,22.4,30.58,NNE,16,0.0,20.0,77,0.00,,,0.00,Wunderground v.1.15,2013-11-21 13:25:00,
2013-11-21 08:30:00,29.0,23.6,30.58,NNE,16,0.0,20.0,80,0.00,,,0.00,Wunderground v.1.15,2013-11-21 13:30:00,
2013-11-21 08:35:00,29.2,23.5,30.58,NNE,16,0.0,20.0,79,0.00,,,0.00,Wunderground v.1.15,2013-11-21 13:35:00,
2013-11-21 08:45:00,29.6,24.2,30.58,NNE,16,0.0,20.0,80,0.00,,,0.00,Wunderground v.1.15,2013-11-21 13:45:00,
2013-11-21 08:50:00,29.7,24.3,30.58,NNE,16,0.0,20.0,80,0.00,,,0.00,Wunderground v.1.15,2013-11-21 13:50:00,
2013-11-21 09:00:00,30.1,24.7,30.57,NNE,16,0.0,20.0,80,0.00,,,0.00,Wunderground v.1.15,2013-11-21 14:00:00,
2013-11-21 09:05:00,30.4,25.9,30.57,NNE,16,0.0,20.0,83,0.00,,,0.00,Wunderground v.1.15,2013-11-21 14:05:00,
2013-11-21 09:10:00,30.8,26.2,30.57,NNE,16,0.0,20.0,83,0.00,,,0.00,Wunderground v.1.15,2013-11-21 14:10:00,
2013-11-21 09:15:00,31.3,26.7,30.57,SE,136,1.0,20.0,83,0.00,,,0.00,Wunderground v.1.15,2013-11-21 14:15:00,
2013-11-21 09:20:00,31.6,27.0,30.57,SE,136,1.0,20.0,83,0.00,,,0.00,Wunderground v.1.15,2013-11-21 14:20:00,
2013-11-21 09:25:00,31.7,27.1,30.57,SE,136,1.0,20.0,83,0.00,,,0.00,Wunderground v.1.15,2013-11-21 14:25:00,
2013-11-21 09:30:00,31.9,27.3,30.57,SE,136,0.0,20.0,83,0.00,,,0.00,Wunderground v.1.15,2013-11-21 14:30:00,
2013-11-21 09:40:00,32.2,27.3,30.57,SE,136,1.0,20.0,82,0.00,,,0.00,Wunderground v.1.15,2013-11-21 14:40:00,
2013-11-21 09:45:00,32.4,27.5,30.56,SE,136,1.0,20.0,82,0.00,,,0.00,Wunderground v.1.15,2013-11-21 14:45:00,
2013-11-21 09:50:00,32.5,27.3,30.56,SE,136,2.0,2.0,81,0.00,,,0.00,Wunderground v.1.15,2013-11-21 14:50:00,
2013-11-21 12:05:00,37.9,25.2,30.51,NE,34,1.0,1.0,60,0.00,,,0.00,Wunderground v.1.15,2013-11-21 17:05:00,
2013-11-21 12:10:00,38.2,23.9,30.51,NE,35,1.0,1.0,56,0.00,,,0.00,Wunderground v.1.15,2013-11-21 17:10:00,
2013-11-21 12:15:00,38.4,23.6,30.51,NE,35,0.0,20.0,55,0.00,,,0.00,Wunderground v.1.15,2013-11-21 17:15:00,
2013-11-21 12:40:00,39.9,25.0,30.49,ESE,103,2.0,4.0,55,0.00,,,0.00,Wunderground v.1.15,2013-11-21 17:40:00,
2013-11-21 12:45:00,40.2,24.4,30.49,ESE,103,2.0,4.0,53,0.00,,,0.00,Wunderground v.1.15,2013-11-21 17:45:00,
2013-11-21 12:50:00,40.4,25.1,30.48,SE,138,2.0,4.0,54,0.00,,,0.00,Wunderground v.1.15,2013-11-21 17:50:00,
2013-11-21 13:00:00,40.8,25.0,30.48,SE,146,3.0,4.0,53,0.00,,,0.00,Wunderground v.1.15,2013-11-21 18:00:00,
2013-11-21 13:10:00,41.1,23.9,30.48,SE,145,2.0,2.0,50,0.00,,,0.00,Wunderground v.1.15,2013-11-21 18:10:00,
2013-11-21 13:15:00,41.3,22.6,30.48,SE,145,2.0,4.0,47,0.00,,,0.00,Wunderground v.1.15,2013-11-21 18:15:00,
2013-11-21 13:20:00,41.4,21.1,30.48,SE,145,2.0,2.0,44,0.00,,,0.00,Wunderground v.1.15,2013-11-21 18:20:00,
2013-11-21 13:25:00,41.5,23.7,30.47,SE,145,2.0,3.0,49,0.00,,,0.00,Wunderground v.1.15,2013-11-21 18:25:00,
2013-11-21 13:35:00,41.9,23.1,30.46,ESE,123,2.0,4.0,47,0.00,,,0.00,Wunderground v.1.15,2013-11-21 18:35:00,
2013-11-21 13:40:00,42.0,23.2,30.46,ESE,123,2.0,4.0,47,0.00,,,0.00,Wunderground v.1.15,2013-11-21 18:40:00,
2013-11-21 13:45:00,42.1,22.8,30.46,ESE,123,2.0,4.0,46,0.00,,,0.00,Wunderground v.1.15,2013-11-21 18:45:00,
2013-11-21 13:50:00,42.2,21.3,30.46,ESE,123,2.0,2.0,43,0.00,,,0.00,Wunderground v.1.15,2013-11-21 18:50:00,
2013-11-21 14:00:00,42.4,21.5,30.45,ESE,123,2.0,4.0,43,0.00,,,0.00,Wunderground v.1.15,2013-11-21 19:00:00,
2013-11-21 14:10:00,42.6,20.5,30.44,ESE,123,3.0,3.0,41,0.00,,,0.00,Wunderground v.1.15,2013-11-21 19:10:00,
2013-11-21 14:15:00,42.7,21.2,30.44,ESE,123,2.0,4.0,42,0.00,,,0.00,Wunderground v.1.15,2013-11-21 19:15:00,
2013-11-21 14:20:00,42.5,20.4,30.44,ESE,123,1.0,1.0,41,0.00,,,0.00,Wunderground v.1.15,2013-11-21 19:20:00,
2013-11-21 14:25:00,42.2,19.6,30.45,ESE,123,0.0,4.0,40,0.00,,,0.00,Wunderground v.1.15,2013-11-21 19:25:00,
2013-11-21 14:30:00,42.0,20.0,30.44,ESE,123,0.0,4.0,41,0.00,,,0.00,Wunderground v.1.15,2013-11-21 19:30:00,
2013-11-21 14:40:00,42.0,18.2,30.44,ESE,123,0.0,4.0,38,0.00,,,0.00,Wunderground v.1.15,2013-11-21 19:40:00,
2013-11-21 14:45:00,42.2,16.5,30.44,ESE,123,0.0,4.0,35,0.00,,,0.00,Wunderground v.1.15,2013-11-21 19:45:00,
2013-11-21 14:50:00,42.5,19.3,30.44,ESE,123,0.0,4.0,39,0.00,,,0.00,Wunderground v.1.15,2013-11-21 19:50:00,
2013-11-21 14:55:00,42.7,14.8,30.44,ESE,123,0.0,4.0,32,0.00,,,0.00,Wunderground v.1.15,2013-11-21 19:55:00,
2013-11-21 15:05:00,42.9,15.7,30.44,ESE,123,0.0,4.0,33,0.00,,,0.00,Wunderground v.1.15,2013-11-21 20:05:00,
2013-11-21 15:15:00,42.6,16.8,30.44,ESE,123,0.0,4.0,35,0.00,,,0.00,Wunderground v.1.15,2013-11-21 20:15:00,
2013-11-21 15:20:00,42.5,18.0,30.44,ESE,123,0.0,4.0,37,0.00,,,0.00,Wunderground v.1.15,2013-11-21 20:20:00,
2013-11-21 15:25:00,42.2,19.0,30.44,ESE,123,0.0,4.0,39,0.00,,,0.00,Wunderground v.1.15,2013-11-21 20:25:00,
2013-11-21 15:30:00,41.9,17.5,30.44,ESE,123,0.0,4.0,37,0.00,,,0.00,Wunderground v.1.15,2013-11-21 20:30:00,
2013-11-21 15:35:00,41.8,17.4,30.44,ESE,123,0.0,4.0,37,0.00,,,0.00,Wunderground v.1.15,2013-11-21 20:35:00,
2013-11-21 15:40:00,41.7,16.0,30.44,ESE,123,0.0,4.0,35,0.00,,,0.00,Wunderground v.1.15,2013-11-21 20:40:00,
2013-11-21 15:50:00,41.8,17.4,30.43,ESE,123,0.0,4.0,37,0.00,,,0.00,Wunderground v.1.15,2013-11-21 20:50:00,
2013-11-21 15:55:00,41.5,16.5,30.43,ESE,123,0.0,4.0,36,0.00,,,0.00,Wunderground v.1.15,2013-11-21 20:55:00,
2013-11-21 16:00:00,41.2,16.9,30.42,ESE,123,0.0,4.0,37,0.00,,,0.00,Wunderground v.1.15,2013-11-21 21:00:00,
2013-11-21 16:10:00,40.4,16.8,30.42,ESE,123,0.0,4.0,38,0.00,,,0.00,Wunderground v.1.15,2013-11-21 21:10:00,
2013-11-21 16:15:00,40.0,16.4,30.42,ESE,123,0.0,4.0,38,0.00,,,0.00,Wunderground v.1.15,2013-11-21 21:15:00,
2013-11-21 16:20:00,39.9,16.9,30.42,ESE,123,0.0,4.0,39,0.00,,,0.00,Wunderground v.1.15,2013-11-21 21:20:00,
2013-11-21 16:25:00,39.7,17.3,30.42,ESE,123,0.0,4.0,40,0.00,,,0.00,Wunderground v.1.15,2013-11-21 21:25:00,
2013-11-21 16:30:00,39.5,17.7,30.43,ESE,123,1.0,4.0,41,0.00,,,0.00,Wunderground v.1.15,2013-11-21 21:30:00,
2013-11-21 16:35:00,39.3,17.0,30.43,ESE,123,1.0,4.0,40,0.00,,,0.00,Wunderground v.1.15,2013-11-21 21:35:00,
2013-11-21 16:40:00,39.3,17.5,30.43,ESE,123,1.0,1.0,41,0.00,,,0.00,Wunderground v.1.15,2013-11-21 21:40:00,
2013-11-21 16:45:00,39.3,17.0,30.43,ESE,123,0.0,4.0,40,0.00,,,0.00,Wunderground v.1.15,2013-11-21 21:45:00,
2013-11-21 17:00:00,39.1,15.6,30.43,ESE,123,0.0,2.0,38,0.00,,,0.00,Wunderground v.1.15,2013-11-21 22:00:00,
2013-11-21 17:10:00,39.2,15.7,30.42,ESE,123,0.0,0.0,38,0.00,,,0.00,Wunderground v.1.15,2013-11-21 22:10:00,
2013-11-21 17:20:00,38.9,17.7,30.42,ESE,123,0.0,0.0,42,0.00,,,0.00,Wunderground v.1.15,2013-11-21 22:20:00,
2013-11-21 17:25:00,38.8,19.8,30.42,ESE,123,0.0,1.0,46,0.00,,,0.00,Wunderground v.1.15,2013-11-21 22:25:00,
2013-11-21 17:30:00,38.6,20.6,30.42,ESE,123,0.0,0.0,48,0.00,,,0.00,Wunderground v.1.15,2013-11-21 22:30:00,
2013-11-21 17:35:00,38.4,21.8,30.42,ESE,123,0.0,0.0,51,0.00,,,0.00,Wunderground v.1.15,2013-11-21 22:35:00,
2013-11-21 17:40:00,38.3,22.2,30.41,ESE,123,0.0,0.0,52,0.00,,,0.00,Wunderground v.1.15,2013-11-21 22:40:00,
2013-11-21 17:45:00,38.0,19.5,30.41,ESE,123,0.0,0.0,47,0.00,,,0.00,Wunderground v.1.15,2013-11-21 22:45:00,
2013-11-21 17:55:00,37.8,19.3,30.42,ESE,123,0.0,0.0,47,0.00,,,0.00,Wunderground v.1.15,2013-11-21 22:55:00,
2013-11-21 18:00:00,38.0,18.0,30.41,ESE,123,1.0,1.0,44,0.00,,,0.00,Wunderground v.1.15,2013-11-21 23:00:00,
2013-11-21 18:05:00,38.2,19.2,30.41,ESE,123,0.0,1.0,46,0.00,,,0.00,Wunderground v.1.15,2013-11-21 23:05:00,
2013-11-21 18:10:00,38.2,18.2,30.41,ESE,123,0.0,1.0,44,0.00,,,0.00,Wunderground v.1.15,2013-11-21 23:10:00,
2013-11-21 18:20:00,38.4,21.8,30.41,ESE,123,0.0,1.0,51,0.00,,,0.00,Wunderground v.1.15,2013-11-21 23:20:00,
2013-11-21 18:30:00,38.9,21.3,30.41,ESE,123,0.0,1.0,49,0.00,,,0.00,Wunderground v.1.15,2013-11-21 23:30:00,
2013-11-21 18:35:00,38.9,19.9,30.40,SE,146,1.0,1.0,46,0.00,,,0.00,Wunderground v.1.15,2013-11-21 23:35:00,
2013-11-21 18:40:00,38.9,20.9,30.41,SSE,150,1.0,1.0,48,0.00,,,0.00,Wunderground v.1.15,2013-11-21 23:40:00,
2013-11-21 18:45:00,38.9,20.9,30.41,SSE,150,1.0,1.0,48,0.00,,,0.00,Wunderground v.1.15,2013-11-21 23:45:00,
2013-11-21 18:50:00,38.8,21.3,30.41,SSE,150,1.0,2.0,49,0.00,,,0.00,Wunderground v.1.15,2013-11-21 23:50:00,
2013-11-21 19:00:00,38.8,20.8,30.40,SSE,150,1.0,1.0,48,0.00,,,0.00,Wunderground v.1.15,2013-11-22 00:00:00,
2013-11-21 19:10:00,38.7,21.2,30.40,WSW,252,2.0,2.0,49,0.00,,,0.00,Wunderground v.1.15,2013-11-22 00:10:00,
2013-11-21 19:15:00,38.7,21.2,30.40,WSW,252,2.0,2.0,49,0.00,,,0.00,Wunderground v.1.15,2013-11-22 00:15:00,
2013-11-21 19:20:00,38.5,21.0,30.40,WSW,252,1.0,2.0,49,0.00,,,0.00,Wunderground v.1.15,2013-11-22 00:20:00,
2013-11-21 19:25:00,38.3,19.8,30.40,WSW,252,1.0,2.0,47,0.00,,,0.00,Wunderground v.1.15,2013-11-22 00:25:00,
2013-11-21 19:35:00,38.0,21.0,30.40,NNW,331,1.0,1.0,50,0.00,,,0.00,Wunderground v.1.15,2013-11-22 00:35:00,
2013-11-21 19:40:00,37.8,20.3,30.40,NNW,331,1.0,1.0,49,0.00,,,0.00,Wunderground v.1.15,2013-11-22 00:40:00,
2013-11-21 19:45:00,37.6,20.1,30.39,NNW,331,1.0,1.0,49,0.00,,,0.00,Wunderground v.1.15,2013-11-22 00:45:00,
2013-11-21 19:50:00,37.3,19.9,30.39,NNW,331,1.0,1.0,49,0.00,,,0.00,Wunderground v.1.15,2013-11-22 00:50:00,
2013-11-21 19:55:00,37.1,20.2,30.39,NNW,331,1.0,1.0,50,0.00,,,0.00,Wunderground v.1.15,2013-11-22 00:55:00,
2013-11-21 20:00:00,36.9,18.5,30.39,NNW,331,1.0,2.0,47,0.00,,,0.00,Wunderground v.1.15,2013-11-22 01:00:00,
2013-11-21 20:05:00,36.8,20.3,30.39,NNW,331,1.0,2.0,51,0.00,,,0.00,Wunderground v.1.15,2013-11-22 01:05:00,
2013-11-21 20:10:00,36.8,18.9,30.39,NNW,331,0.0,2.0,48,0.00,,,0.00,Wunderground v.1.15,2013-11-22 01:10:00,
2013-11-21 20:15:00,36.8,20.3,30.39,NNW,331,1.0,2.0,51,0.00,,,0.00,Wunderground v.1.15,2013-11-22 01:15:00,
2013-11-21 20:20:00,36.7,20.3,30.39,NNW,331,1.0,1.0,51,0.00,,,0.00,Wunderground v.1.15,2013-11-22 01:20:00,
2013-11-21 20:30:00,36.4,20.0,30.38,NNW,331,1.0,1.0,51,0.00,,,0.00,Wunderground v.1.15,2013-11-22 01:30:00,
2013-11-21 20:35:00,36.2,19.3,30.38,NNW,331,1.0,2.0,50,0.00,,,0.00,Wunderground v.1.15,2013-11-22 01:35:00,
2013-11-21 20:45:00,36.0,19.1,30.37,NNW,331,1.0,2.0,50,0.00,,,0.00,Wunderground v.1.15,2013-11-22 01:45:00,
2013-11-21 20:50:00,36.0,19.6,30.37,NNW,331,1.0,2.0,51,0.00,,,0.00,Wunderground v.1.15,2013-11-22 01:50:00,
2013-11-21 20:55:00,35.9,20.9,30.37,NNW,331,1.0,2.0,54,0.00,,,0.00,Wunderground v.1.15,2013-11-22 01:55:00,
2013-11-21 21:00:00,35.9,22.5,30.37,NNW,331,1.0,2.0,58,0.00,,,0.00,Wunderground v.1.15,2013-11-22 02:00:00,
2013-11-21 21:05:00,36.0,23.0,30.37,NNW,331,1.0,2.0,59,0.00,,,0.00,Wunderground v.1.15,2013-11-22 02:05:00,
2013-11-21 21:10:00,36.0,23.0,30.37,NNW,331,1.0,2.0,59,0.00,,,0.00,Wunderground v.1.15,2013-11-22 02:10:00,
2013-11-21 21:15:00,35.9,23.0,30.37,NNW,331,1.0,2.0,59,0.00,,,0.00,Wunderground v.1.15,2013-11-22 02:15:00,
2013-11-21 21:20:00,35.9,23.0,30.37,NNW,331,1.0,2.0,59,0.00,,,0.00,Wunderground v.1.15,2013-11-22 02:20:00,
2013-11-21 21:25:00,36.1,23.5,30.37,NNW,331,1.0,2.0,60,0.00,,,0.00,Wunderground v.1.15,2013-11-22 02:25:00,
2013-11-21 21:30:00,36.2,23.2,30.36,NNW,331,1.0,2.0,59,0.00,,,0.00,Wunderground v.1.15,2013-11-22 02:30:00,
2013-11-21 21:35:00,36.4,23.0,30.37,NNW,331,1.0,2.0,58,0.00,,,0.00,Wunderground v.1.15,2013-11-22 02:35:00,
2013-11-21 21:40:00,36.3,22.9,30.37,NNW,331,1.0,2.0,58,0.00,,,0.00,Wunderground v.1.15,2013-11-22 02:40:00,
2013-11-21 21:50:00,36.1,21.9,30.37,NNW,331,1.0,2.0,56,0.00,,,0.00,Wunderground v.1.15,2013-11-22 02:50:00,
2013-11-21 21:55:00,36.1,22.3,30.36,NNW,331,1.0,2.0,57,0.00,,,0.00,Wunderground v.1.15,2013-11-22 02:55:00,
2013-11-21 22:00:00,36.3,22.9,30.36,NNW,331,1.0,1.0,58,0.00,,,0.00,Wunderground v.1.15,2013-11-22 03:00:00,
2013-11-21 22:05:00,36.3,23.7,30.36,NNW,331,0.0,2.0,60,0.00,,,0.00,Wunderground v.1.15,2013-11-22 03:05:00,
2013-11-21 22:10:00,36.3,23.7,30.36,NNW,331,0.0,2.0,60,0.00,,,0.00,Wunderground v.1.15,2013-11-22 03:10:00,
2013-11-21 22:15:00,36.4,23.4,30.35,NNW,331,0.0,2.0,59,0.00,,,0.00,Wunderground v.1.15,2013-11-22 03:15:00,
2013-11-21 22:25:00,36.5,23.9,30.35,NNW,331,0.0,2.0,60,0.00,,,0.00,Wunderground v.1.15,2013-11-22 03:25:00,
2013-11-21 22:35:00,36.4,24.2,30.35,NNW,331,0.0,2.0,61,0.00,,,0.00,Wunderground v.1.15,2013-11-22 03:35:00,
2013-11-21 22:40:00,36.4,24.6,30.34,NNW,331,0.0,2.0,62,0.00,,,0.00,Wunderground v.1.15,2013-11-22 03:40:00,
2013-11-21 22:45:00,36.3,24.9,30.35,NNW,331,1.0,2.0,63,0.00,,,0.00,Wunderground v.1.15,2013-11-22 03:45:00,
2013-11-21 22:50:00,36.4,25.0,30.35,NNW,331,1.0,2.0,63,0.00,,,0.00,Wunderground v.1.15,2013-11-22 03:50:00,
2013-11-21 23:00:00,36.7,25.3,30.34,NNW,331,0.0,2.0,63,0.00,,,0.00,Wunderground v.1.15,2013-11-22 04:00:00,
2013-11-21 23:05:00,36.8,25.4,30.34,NNW,331,1.0,2.0,63,0.00,,,0.00,Wunderground v.1.15,2013-11-22 04:05:00,
2013-11-21 23:10:00,37.0,25.9,30.33,NNW,331,1.0,2.0,64,0.00,,,0.00,Wunderground v.1.15,2013-11-22 04:10:00,
2013-11-21 23:15:00,37.1,26.0,30.33,NNW,331,1.0,2.0,64,0.00,,,0.00,Wunderground v.1.15,2013-11-22 04:15:00,
2013-11-21 23:20:00,37.2,26.1,30.33,NNW,331,1.0,2.0,64,0.00,,,0.00,Wunderground v.1.15,2013-11-22 04:20:00,
2013-11-21 23:25:00,37.2,26.5,30.33,NNW,331,2.0,2.0,65,0.00,,,0.00,Wunderground v.1.15,2013-11-22 04:25:00,
2013-11-21 23:30:00,37.1,26.4,30.32,NNW,331,1.0,2.0,65,0.00,,,0.00,Wunderground v.1.15,2013-11-22 04:30:00,
2013-11-21 23:40:00,37.3,26.6,30.32,NNW,331,1.0,1.0,65,0.00,,,0.00,Wunderground v.1.15,2013-11-22 04:40:00,
2013-11-21 23:45:00,37.5,26.8,30.32,NNW,331,0.0,2.0,65,0.00,,,0.00,Wunderground v.1.15,2013-11-22 04:45:00,
2013-11-21 23:50:00,37.7,27.0,30.31,NNW,331,0.0,2.0,65,0.00,,,0.00,Wunderground v.1.15,2013-11-22 04:50:00,
2013-11-21 23:55:00,37.8,27.1,30.31,NNW,331,0.0,2.0,65,0.00,,,0.00,Wunderground v.1.15,2013-11-22 04:55:00,